Regional Weather Roundup
Issued by NWS Albany, NY

Home | Current Version | Previous Version | Text Only | Print | Product List | Glossary On
Versions: 1 2 3 4 5 6 7 8 9 10 11 12 13 14 15 16 17 18 19 20 21 22 23 24 25 26 27
000
ASUS41 KALY 232110
RWRALY

NEW YORK STATE HOURLY WEATHER ROUNDUP
NATIONAL WEATHER SERVICE ALBANY NY
500 PM EDT THU OCT 23 2014

NOTE: "FAIR" INDICATES FEW OR NO CLOUDS BELOW 12,000 FEET WITH NO
SIGNIFICANT WEATHER AND/OR NO OBSTRUCTIONS TO VISIBILITY.

NYZ032-033-038>043-046>054-057>066-NYZ062>081-232200-
EAST


CITY           SKY/WX    TMP DP  RH WIND       PRES   REMARKS
ALBANY         LGT RAIN  47  44  90 N10       29.83R
GLENS FALLS    CLOUDY    48  44  86 N5        29.84S
POUGHKEEPSIE   CLOUDY    51  44  77 N18G30    29.75R
MONTGOMERY     CLOUDY    51  48  89 NE6       29.75R
WHITE PLAINS   PTSUNNY   50  44  80 NW23G29   29.69R
ISLIP          CLOUDY    53  47  79 N16G24    29.63R
NEW YORK CITY  PTSUNNY   53  46  77 N25       29.69R
CENTRAL PARK   CLOUDY    53  46  77 VRB7      29.73R
$$

NYZ005>009-017-018-044>046-055-056-232200-
CENTRAL


CITY           SKY/WX    TMP DP  RH WIND       PRES   REMARKS
FULTON         CLOUDY    53  41  63 N14       29.95F
SYRACUSE       CLOUDY    53  42  66 NW12      29.94S
ROME           LGT RAIN  47  43  86 NW7       29.92S
ELMIRA         CLOUDY    55  42  61 N15G22    29.92S
BINGHAMTON     LGT RAIN  46  41  82 N15G25    29.88R
MONTICELLO     CLOUDY    46  43  87 NW13G18   29.80F
$$

NYZ026>034-041>043-232200-
NORTH


CITY           SKY/WX    TMP DP  RH WIND       PRES   REMARKS
WATERTOWN      CLOUDY    52  41  66 NE9       29.96F
FORT DRUM      NOT AVBL
MASSENA        LGT RAIN  48  45  89 NE8       30.00F
SARANAC LAKE   LGT RAIN  41  39  93 NE9       29.91R
PLATTSBURGH    LGT RAIN  45  43  93 N20       29.94F
$$

NYZ001>004-010>016-019>021-232200-
WEST


CITY           SKY/WX    TMP DP  RH WIND       PRES   REMARKS
NIAGARA FALLS  MOSUNNY   58  41  53 NW15      30.04F
BUFFALO        MOSUNNY   58  40  51 NW17      30.04F
DUNKIRK        SUNNY     56  44  64 W8        30.06F
JAMESTOWN      SUNNY     52  37  58 NW14G20   30.06S
WELLSVILLE     CLOUDY    54  37  52 NW18G24   29.99S
ROCHESTER      CLOUDY    58  39  49 NW13      30.00R
PENN YAN       CLOUDY    55  40  56 N10       29.96S
$$

             KEY
       WCI = WIND CHILL INDEX
       VSB = VISIBILITY
       HX  = HEAT INDEX
$$



USA.gov is the U.S. government's official web portal to all federal, state and local government web resources and services.